Talkeetna, AK

12:27 PM AKDT on June 25, 2018 (GMT -0800)
Talkeetna

Weather History for PATK - November, 2017

Change the Weather History Date:

Tuesday, November 14, 2017

  Actual Average Record
Temperature  
Mean Temperature 16 °F -  
Max Temperature 33 °F 25 °F 45 °F (1976)
Min Temperature 0 °F 6 °F -17 °F (1958)
Degree Days  
Heating Degree Days 48    
Moisture  
Dew Point 9 °F    
Average Humidity 44    
Maximum Humidity 62    
Minimum Humidity 24    
Precipitation  
Precipitation 0.00 in - - ()
Sea Level Pressure  
Sea Level Pressure 30.21 in    
Wind  
Wind Speed 6 mph (North)    
Max Wind Speed 10 mph    
Max Gust Speed 17 mph    
Visibility 10 miles    
Events      
Averages and records for this station are not official NWS values.
T = Trace of Precipitation, MM = Missing Value Source: NWS Daily Summary

Daily Weather History Graph

Daily Weather History Graph

Search for Another Location

Airport or City:

Astronomy

Nov. 14, 2017 Rise Set
Actual Time 9:12 AM AKST 4:16 PM AKST
Civil Twilight 8:18 AM AKST 5:10 PM AKST
Nautical Twilight 7:22 AM AKST 6:06 PM AKST
Astronomical Twilight 6:29 AM AKST 6:59 PM AKST
Moon 3:53 AM AKST (11/14) 4:06 PM AKST (11/14)
Length of Visible Light 8h 52m
Length of Day
7h 03m
Waning Crescent, 12% of the Moon is Illuminated
Nov 14
Waning Crescent
Nov 18
New
Nov 26
First Quarter
Dec 3
Full
Dec 9
Last Quarter

Hourly Weather History & Observations

Time (AKST) Temp. Windchill Dew Point Humidity Pressure Visibility Wind Dir Wind Speed Gust Speed Precip Events Conditions
12:53 AM 24.1 °F 18.2 °F 10.0 °F 55% 30.20 in 10.0 mi NNW 4.6 mph - N/A   Clear
1:53 AM 25.0 °F 18.1 °F 9.0 °F 51% 30.20 in 10.0 mi NNW 5.8 mph - N/A   Clear
2:53 AM 26.1 °F 21.9 °F 9.0 °F 49% 30.20 in 10.0 mi Variable 3.5 mph - N/A   Clear
3:53 AM 28.9 °F 21.9 °F 9.0 °F 43% 30.21 in 10.0 mi North 6.9 mph - N/A   Clear
4:53 AM 28.0 °F 19.3 °F 9.0 °F 45% 30.22 in 10.0 mi NNW 9.2 mph - N/A   Clear
5:53 AM 28.0 °F 20.0 °F 9.0 °F 45% 30.21 in 10.0 mi North 8.1 mph - N/A   Clear
6:53 AM 24.1 °F - 9.0 °F 53% 30.22 in 10.0 mi Calm Calm - N/A   Clear
7:53 AM 19.0 °F - 8.1 °F 62% 30.22 in 10.0 mi Calm Calm - N/A   Clear
8:53 AM 23.0 °F - 8.1 °F 53% 30.23 in 10.0 mi Calm Calm - N/A   Clear
9:53 AM 27.0 °F 20.5 °F 8.1 °F 45% 30.24 in 10.0 mi NNW 5.8 mph - N/A   Clear
10:53 AM 27.0 °F 18.7 °F 9.0 °F 47% 30.24 in 10.0 mi NW 8.1 mph - N/A   Clear
11:53 AM 30.0 °F 23.2 °F 9.0 °F 41% 30.22 in 10.0 mi NNW 6.9 mph - N/A   Clear
12:53 PM 32.0 °F 24.8 °F 9.0 °F 38% 30.22 in 10.0 mi NNW 8.1 mph - N/A   Clear
1:53 PM 32.0 °F 24.8 °F 9.0 °F 38% 30.23 in 10.0 mi North 8.1 mph - N/A   Clear
2:53 PM 32.0 °F 24.2 °F 9.0 °F 38% 30.23 in 10.0 mi North 9.2 mph - N/A   Clear
3:53 PM 30.9 °F 24.3 °F 10.0 °F 42% 30.22 in 10.0 mi North 6.9 mph - N/A   Clear
4:53 PM 30.0 °F 23.2 °F 9.0 °F 41% 30.22 in 10.0 mi NNW 6.9 mph - N/A   Clear
5:53 PM 28.9 °F 21.9 °F 8.1 °F 41% 30.22 in 10.0 mi North 6.9 mph - N/A   Clear
6:53 PM 28.0 °F 19.3 °F 8.1 °F 43% 30.22 in 10.0 mi North 9.2 mph - N/A   Clear
7:53 PM 27.0 °F 19.5 °F 8.1 °F 45% 30.21 in 10.0 mi North 6.9 mph - N/A   Clear
8:53 PM 27.0 °F 17.3 °F 8.1 °F 45% 30.20 in 10.0 mi North 10.4 mph 17.3 mph N/A   Clear
9:53 PM 27.0 °F 18.0 °F 7.0 °F 43% 30.19 in 10.0 mi NNE 9.2 mph - N/A   Clear
10:53 PM 24.1 °F 16.0 °F 7.0 °F 48% 30.18 in 10.0 mi NE 6.9 mph - N/A   Clear
11:53 PM 23.0 °F 15.8 °F 8.1 °F 53% 30.17 in 10.0 mi NE 5.8 mph - N/A   Clear